FW1130 Weather Reports


time (UTC)temp
C
wind
direction
speed
KPH
gust
KPH
rain 1hr
cm
rain 24hr
cm
rain mn
cm
humidity
%
barometer
mb
20260504160325 20 125 0.0 0.0 0.00 0.00 0.00 54 1008.6
20260504150825 18 125 0.0 0.0 0.00 0.00 0.00 66 1008.7
20260504150341 17 125 0.0 0.0 0.00 0.00 0.00 69 1008.7
20260504141324 12 125 0.0 0.0 0.00 0.00 0.00 85 1008.4
20260504140827 12 125 0.0 0.0 0.00 0.00 0.00 85 1008.5
20260504140324 12 125 0.0 0.0 0.00 0.00 0.00 85 1008.4
20260504130327 11 125 0.0 0.0 0.00 0.00 0.00 83 1008.0
20260504110325 12 243 0.0 0.0 0.00 0.00 0.00 80 1007.9
20260504100323 13 243 0.0 0.0 0.00 0.00 0.00 78 1007.7
20260504081823 14 243 0.0 0.0 0.00 0.00 0.00 74 1007.3
20260504081327 15 243 0.0 0.0 0.00 0.00 0.00 73 1007.3
20260504080823 15 243 0.0 0.0 0.00 0.00 0.00 73 1007.3
20260504080337 15 243 0.0 0.0 0.00 0.00 0.00 73 1007.3
20260504070335 16 244 0.0 0.0 0.00 0.00 0.00 70 1007.1
20260504050332 18 243 526.3 526.3 0.00 0.00 0.00 61 1007.0
20260504045835 18 243 0.0 0.0 0.00 0.00 0.00 61 1007.0
20260504045338 18 243 0.0 0.0 0.00 0.00 0.00 60 1007.0
20260504044829 19 243 0.0 0.0 0.00 0.00 0.00 59 1007.0
20260504044337 19 243 0.0 0.0 0.00 0.00 0.00 59 1007.0
20260504043832 19 243 0.0 0.0 0.00 0.00 0.00 59 1007.0
20260504043357 20 243 0.0 0.0 0.00 0.00 0.00 58 1007.0
20260504042825 20 243 0.0 0.0 0.00 0.00 0.00 57 1007.0
20260504042324 20 243 0.0 0.0 0.00 0.00 0.00 56 1006.9
20260504041846 20 244 0.0 0.0 0.00 0.00 0.00 55 1007.0
20260504041350 20 243 0.0 0.0 0.00 0.00 0.00 54 1006.9
20260504040839 21 243 0.0 0.0 0.00 0.00 0.00 53 1006.9
20260504040329 21 243 0.0 0.0 0.00 0.00 0.00 52 1006.9
20260504035831 21 243 0.0 0.0 0.00 0.00 0.00 50 1006.8
20260504035330 21 244 0.0 0.0 0.00 0.00 0.00 49 1006.8
20260504034823 22 243 0.0 0.0 0.00 0.00 0.00 49 1006.8
20260504034337 22 243 0.0 0.0 0.00 0.00 0.00 47 1006.7
20260504033825 22 243 0.0 0.0 0.00 0.00 0.00 46 1006.7
20260504033343 22 243 0.0 0.0 0.00 0.00 0.00 47 1006.7
20260504032841 22 243 0.0 0.0 0.00 0.00 0.00 46 1006.7
20260504032335 23 243 0.0 0.0 0.00 0.00 0.00 45 1006.7
20260504031829 23 244 0.0 0.0 0.00 0.00 0.00 44 1006.7
20260504031328 23 243 0.0 0.0 0.00 0.00 0.00 44 1006.7
20260504030833 23 233 0.0 0.0 0.00 0.00 0.00 43 1006.7
20260504030338 24 233 0.0 0.0 0.00 0.00 0.00 42 1006.7
20260504025826 24 233 0.0 0.0 0.00 0.00 0.00 40 1006.8
20260504025325 25 233 0.0 0.0 0.00 0.00 0.00 40 1006.8
20260504024833 25 160 0.0 0.0 0.00 0.00 0.00 39 1006.8
20260504024348 25 206 0.0 0.0 0.00 0.00 0.00 38 1006.9
20260504023905 26 207 0.0 0.0 0.00 0.00 0.00 36 1006.8
20260504023357 26 207 0.0 0.0 0.00 0.00 0.00 34 1006.8
20260504022824 26 206 0.0 0.0 0.00 0.00 0.00 33 1006.8
20260504022407 26 207 0.0 0.0 0.00 0.00 0.00 33 1006.9
20260504021829 26 206 0.0 0.0 0.00 0.00 0.00 32 1006.8
20260504021328 26 219 0.0 0.0 0.00 0.00 0.00 32 1006.9
20260504020826 27 219 0.0 0.0 0.00 0.00 0.00 31 1006.9
20260504020349 27 214 0.0 0.0 0.00 0.00 0.00 30 1006.9
20260504015840 27 214 0.0 0.0 0.00 0.00 0.00 30 1007.0
20260504015340 27 214 0.0 0.0 0.00 0.00 0.00 30 1007.0
20260504014848 27 214 0.0 0.0 0.00 0.00 0.00 28 1007.0
20260504014325 28 209 0.0 0.0 0.00 0.00 0.00 28 1007.1
20260504013829 28 257 0.0 0.0 0.00 0.00 0.00 29 1007.1
20260504013340 28 321 0.0 0.0 0.00 0.00 0.00 28 1007.2
20260504012851 28 210 0.0 4.8 0.00 0.00 0.00 28 1007.3
20260504012326 28 317 0.0 4.8 0.00 0.00 0.00 28 1007.3
20260504011827 28 339 0.0 6.4 0.00 0.00 0.00 27 1007.5
20260504011325 28 222 0.0 1.6 0.00 0.00 0.00 28 1007.5
20260504010827 28 231 0.0 1.6 0.00 0.00 0.00 28 1007.5
20260504005835 28 190 0.0 0.0 0.00 0.00 0.00 28 1007.6
20260504005344 28 193 0.0 0.0 0.00 0.00 0.00 29 1007.7
20260504004827 28 315 0.0 0.0 0.00 0.00 0.00 28 1007.8
20260504004338 28 214 0.0 0.0 0.00 0.00 0.00 29 1007.8
20260504003835 28 220 0.0 0.0 0.00 0.00 0.00 28 1007.8
20260504003406 28 190 0.0 0.0 0.00 0.00 0.00 28 1007.9
20260504002839 28 218 0.0 0.0 0.00 0.00 0.00 28 1008.0
20260504002345 29 303 0.0 0.0 0.00 0.00 0.00 28 1008.0
20260504001905 28 163 0.0 0.0 0.00 0.00 0.00 28 1008.0
20260504001346 28 342 0.0 1.6 0.00 0.00 0.00 27 1008.1
20260504000356 28 237 0.0 1.6 0.00 0.00 0.00 28 1008.2
20260503235845 28 279 0.0 0.0 0.00 0.00 0.00 27 1008.3
20260503235326 28 329 0.0 0.0 0.00 0.00 0.00 27 1008.3
20260503234830 29 212 0.0 0.0 0.00 0.00 0.00 27 1008.4
20260503234347 29 187 0.0 0.0 0.00 0.00 0.00 27 1008.4
20260503233832 29 231 0.0 3.2 0.00 0.00 0.00 28 1008.5
20260503233330 29 181 0.0 0.0 0.00 0.00 0.00 28 1008.5
20260503232831 28 236 0.0 3.2 0.00 0.00 0.00 29 1008.6
20260503232337 28 206 0.0 3.2 0.00 0.00 0.00 30 1008.7
20260503231856 28 143 0.0 1.6 0.00 0.00 0.00 29 1008.7
20260503231329 28 241 0.0 3.2 0.00 0.00 0.00 30 1008.8
20260503230838 28 205 0.0 3.2 0.00 0.00 0.00 30 1008.9
20260503230334 28 212 0.0 0.0 0.00 0.00 0.00 31 1009.0
20260503225838 28 243 0.0 0.0 0.00 0.00 0.00 32 1009.0
20260503225347 28 210 0.0 9.7 0.00 0.00 0.00 33 1009.1
20260503224838 28 231 0.0 9.7 0.00 0.00 0.00 35 1009.1
20260503224344 28 185 0.0 1.6 0.00 0.00 0.00 33 1009.2
20260503223825 28 254 0.0 1.6 0.00 0.00 0.00 34 1009.3
20260503223340 28 237 0.0 0.0 0.00 0.00 0.00 33 1009.4
20260503222839 28 201 0.0 0.0 0.00 0.00 0.00 35 1009.4
20260503222338 28 198 0.0 0.0 0.00 0.00 0.00 35 1009.5
20260503221827 28 195 0.0 0.0 0.00 0.00 0.00 36 1009.6
20260503221331 28 265 0.0 1.6 0.00 0.00 0.00 37 1009.6
20260503220838 28 220 0.0 1.6 0.00 0.00 0.00 36 1009.7
20260503220326 27 256 0.0 3.2 0.00 0.00 0.00 36 1009.7
20260503215855 28 225 0.0 3.2 0.00 0.00 0.00 36 1009.8
20260503215401 27 223 0.0 1.6 0.00 0.00 0.00 36 1009.8
20260503214825 27 201 0.0 1.6 0.00 0.00 0.00 36 1009.9
20260503214334 27 220 0.0 1.6 0.00 0.00 0.00 37 1009.9
20260503213836 28 214 0.0 0.0 0.00 0.00 0.00 37 1010.0
20260503213324 28 205 0.0 0.0 0.00 0.00 0.00 37 1010.1
20260503212843 27 208 0.0 4.8 0.00 0.00 0.00 37 1010.2
20260503212335 27 165 0.0 4.8 0.00 0.00 0.00 37 1010.1
20260503211833 27 210 0.0 0.0 0.00 0.00 0.00 40 1010.2
20260503211331 27 241 0.0 0.0 0.00 0.00 0.00 39 1010.2
20260503210838 27 226 0.0 1.6 0.00 0.00 0.00 39 1010.3
20260503210341 27 217 0.0 1.6 0.00 0.00 0.00 38 1010.3
20260503205902 27 226 0.0 0.0 0.00 0.00 0.00 39 1010.4
20260503205346 27 226 0.0 0.0 0.00 0.00 0.00 41 1010.5
20260503204830 26 216 0.0 0.0 0.00 0.00 0.00 41 1010.6
20260503204405 26 214 0.0 0.0 0.00 0.00 0.00 41 1010.6
20260503203827 27 209 0.0 0.0 0.00 0.00 0.00 41 1010.7
20260503203340 27 134 0.0 1.6 0.00 0.00 0.00 42 1010.7
20260503202842 26 220 0.0 11.3 0.00 0.00 0.00 44 1010.8
20260503202357 25 146 0.0 11.3 0.00 0.00 0.00 47 1010.8
20260503201830 25 226 0.0 0.0 0.00 0.00 0.00 48 1010.9
20260503201331 25 212 0.0 1.6 0.00 0.00 0.00 49 1010.9
20260503200839 25 228 0.0 9.7 0.00 0.00 0.00 50 1011.1
20260503200336 25 211 0.0 1.6 0.00 0.00 0.00 50 1011.1
20260503195850 25 214 0.0 9.7 0.00 0.00 0.00 50 1011.2
20260503195344 25 233 1.6 9.7 0.00 0.00 0.00 49 1011.2
20260503194838 25 204 0.0 4.8 0.00 0.00 0.00 52 1011.3
20260503194335 25 208 0.0 1.6 0.00 0.00 0.00 50 1011.3
20260503193901 25 222 0.0 1.6 0.00 0.00 0.00 50 1011.3
20260503193334 25 177 0.0 0.0 0.00 0.00 0.00 48 1011.4
20260503192833 24 226 0.0 0.0 0.00 0.00 0.00 47 1011.6
20260503192339 24 129 0.0 0.0 0.00 0.00 0.00 47 1011.6
20260503191824 24 226 0.0 0.0 0.00 0.00 0.00 47 1011.7
20260503191324 24 245 0.0 0.0 0.00 0.00 0.00 48 1011.8
20260503190828 24 197 0.0 0.0 0.00 0.00 0.00 48 1011.8
20260503190345 24 193 0.0 0.0 0.00 0.00 0.00 47 1011.8
20260503185836 24 226 0.0 0.0 0.00 0.00 0.00 47 1011.9
20260503185338 23 201 0.0 0.0 0.00 0.00 0.00 47 1011.9
20260503184904 23 218 0.0 0.0 0.00 0.00 0.00 49 1012.0
20260503184359 23 185 0.0 0.0 0.00 0.00 0.00 49 1012.0
20260503183828 23 216 0.0 0.0 0.00 0.00 0.00 49 1012.0
20260503183346 23 226 0.0 0.0 0.00 0.00 0.00 50 1012.1
20260503182833 23 230 0.0 0.0 0.00 0.00 0.00 51 1012.1
20260503182346 23 231 0.0 0.0 0.00 0.00 0.00 51 1012.2
20260503181836 23 207 0.0 0.0 0.00 0.00 0.00 50 1012.3
20260503181333 23 156 0.0 0.0 0.00 0.00 0.00 50 1012.2
20260503180825 23 135 0.0 0.0 0.00 0.00 0.00 51 1012.2
20260503180332 23 214 0.0 0.0 0.00 0.00 0.00 50 1012.2
20260503175844 23 208 0.0 0.0 0.00 0.00 0.00 48 1012.2
20260503175338 22 201 0.0 0.0 0.00 0.00 0.00 48 1012.3
20260503174829 22 170 0.0 0.0 0.00 0.00 0.00 49 1012.3
20260503174326 22 170 0.0 0.0 0.00 0.00 0.00 48 1012.4
20260503173836 22 170 0.0 0.0 0.00 0.00 0.00 47 1012.4
20260503173326 22 170 0.0 0.0 0.00 0.00 0.00 48 1012.5
20260503172836 21 170 0.0 0.0 0.00 0.00 0.00 47 1012.5
20260503172339 21 170 0.0 0.0 0.00 0.00 0.00 49 1012.6
20260503171856 21 170 0.0 0.0 0.00 0.00 0.00 52 1012.6
20260503171345 20 170 0.0 0.0 0.00 0.00 0.00 53 1012.7
20260503170842 20 170 0.0 0.0 0.00 0.00 0.00 55 1012.7
20260503170330 20 170 0.0 0.0 0.00 0.00 0.00 54 1012.7